| time (UTC) | temp F | wind direction | speed MPH | gust MPH | rain 1hr in | rain 24hr in | rain mn in | humidity % | barometer mb |
| 20260904204034 | 90 | 332 | 4.0 | 6.0 | 0.00 | 0.12 | 0.12 | 71 | 1014.5 |
| 20260904203023 | 90 | 353 | 5.0 | 8.0 | 0.00 | 0.12 | 0.12 | 71 | 1014.6 |
| 20260904202031 | 90 | 30 | 3.0 | 5.0 | 0.00 | 0.12 | 0.12 | 73 | 1014.7 |
| 20260904201041 | 90 | 22 | 3.0 | 5.0 | 0.00 | 0.12 | 0.12 | 72 | 1014.8 |
| 20260904200029 | 90 | 9 | 3.0 | 5.0 | 0.00 | 0.12 | 0.12 | 72 | 1014.9 |
| 20260904195036 | 90 | 21 | 3.0 | 4.0 | 0.00 | 0.12 | 0.12 | 71 | 1015.0 |
| 20260904194026 | 90 | 93 | 3.0 | 4.0 | 0.00 | 0.12 | 0.12 | 71 | 1015.2 |
| 20260904193034 | 90 | 3 | 3.0 | 5.0 | 0.00 | 0.12 | 0.12 | 72 | 1015.3 |
| 20260904192043 | 89 | 360 | 3.0 | 5.0 | 0.00 | 0.12 | 0.12 | 75 | 1015.5 |
| 20260904191053 | 89 | 33 | 4.0 | 8.0 | 0.00 | 0.12 | 0.12 | 75 | 1015.6 |
| 20260904190023 | 89 | 0 | 3.0 | 7.0 | 0.00 | 0.12 | 0.12 | 76 | 1015.8 |
| 20260904185047 | 88 | 10 | 3.0 | 5.0 | 0.00 | 0.12 | 0.12 | 77 | 1016.1 |
| 20260904184057 | 87 | 46 | 3.0 | 7.0 | 0.00 | 0.12 | 0.12 | 78 | 1016.3 |
| 20260904183026 | 89 | 27 | 3.0 | 4.0 | 0.00 | 0.12 | 0.12 | 76 | 1016.4 |
| 20260904182034 | 88 | 350 | 3.0 | 6.0 | 0.00 | 0.12 | 0.12 | 76 | 1016.5 |
| 20260904181023 | 88 | 26 | 3.0 | 6.0 | 0.00 | 0.12 | 0.12 | 78 | 1016.5 |
| 20260904180031 | 88 | 4 | 3.0 | 6.0 | 0.00 | 0.12 | 0.12 | 77 | 1016.8 |
| 20260904175021 | 88 | 22 | 3.0 | 7.0 | 0.00 | 0.12 | 0.12 | 77 | 1016.8 |
| 20260904174029 | 86 | 21 | 2.0 | 4.0 | 0.00 | 0.12 | 0.12 | 80 | 1016.8 |
| 20260904173037 | 85 | 59 | 2.0 | 4.0 | 0.00 | 0.12 | 0.12 | 81 | 1016.8 |
| 20260904172026 | 85 | 28 | 2.0 | 5.0 | 0.00 | 0.12 | 0.12 | 82 | 1016.8 |
| 20260904171054 | 84 | 87 | 3.0 | 4.0 | 0.00 | 0.12 | 0.12 | 83 | 1016.7 |
| 20260904170024 | 83 | 33 | 2.0 | 3.0 | 0.00 | 0.12 | 0.12 | 85 | 1016.7 |
| 20260904165032 | 83 | 54 | 2.0 | 5.0 | 0.00 | 0.12 | 0.12 | 85 | 1017.0 |
| 20260904164021 | 83 | 27 | 2.0 | 3.0 | 0.00 | 0.12 | 0.12 | 86 | 1017.0 |
| 20260904163030 | 83 | 29 | 1.0 | 3.0 | 0.00 | 0.12 | 0.12 | 86 | 1017.2 |
| 20260904162019 | 84 | 310 | 1.0 | 3.0 | 0.00 | 0.12 | 0.12 | 86 | 1017.2 |
| 20260904161107 | 84 | 0 | 0.0 | 3.0 | 0.00 | 0.12 | 0.12 | 85 | 1017.3 |
| 20260904160035 | 84 | 338 | 1.0 | 6.0 | 0.00 | 0.12 | 0.12 | 85 | 1017.2 |
| 20260904155024 | 84 | 47 | 2.0 | 5.0 | 0.00 | 0.12 | 0.12 | 86 | 1017.2 |
| 20260904154052 | 83 | 293 | 0.0 | 1.0 | 0.00 | 0.12 | 0.12 | 87 | 1017.2 |
| 20260904153042 | 83 | 0.0 | 0.0 | 0.00 | 0.12 | 0.12 | 87 | 1017.1 | |
| 20260904152030 | 84 | 23 | 0.0 | 2.0 | 0.00 | 0.12 | 0.12 | 87 | 1017.0 |
| 20260904151019 | 83 | 60 | 1.0 | 4.0 | 0.00 | 0.12 | 0.12 | 89 | 1017.1 |
| 20260904150047 | 83 | 0.0 | 0.0 | 0.00 | 0.12 | 0.12 | 90 | 1017.2 | |
| 20260904145036 | 82 | 0.0 | 0.0 | 0.00 | 0.12 | 0.12 | 92 | 1017.1 | |
| 20260904144025 | 81 | 0.0 | 0.0 | 0.00 | 0.12 | 0.12 | 94 | 1017.0 | |
| 20260904143033 | 80 | 0.0 | 0.0 | 0.00 | 0.12 | 0.12 | 95 | 1017.0 | |
| 20260904142022 | 80 | 0.0 | 0.0 | 0.00 | 0.12 | 0.12 | 95 | 1017.0 | |
| 20260904141030 | 79 | 0.0 | 0.0 | 0.00 | 0.12 | 0.12 | 95 | 1016.9 | |
| 20260904140019 | 79 | 0.0 | 0.0 | 0.00 | 0.12 | 0.12 | 96 | 1016.9 | |
| 20260904135027 | 79 | 0.0 | 0.0 | 0.00 | 0.12 | 0.12 | 97 | 1016.8 | |
| 20260904134036 | 78 | 0.0 | 0.0 | 0.00 | 0.12 | 0.12 | 98 | 1016.5 | |
| 20260904133025 | 78 | 0.0 | 0.0 | 0.00 | 0.12 | 0.12 | 98 | 1016.2 | |
| 20260904132033 | 77 | 0.0 | 0.0 | 0.00 | 0.12 | 0.12 | 97 | 1016.2 | |
| 20260904131023 | 77 | 0.0 | 0.0 | 0.01 | 0.12 | 0.12 | 97 | 1016.4 | |
| 20260904130031 | 76 | 0.0 | 0.0 | 0.02 | 0.12 | 0.12 | 97 | 1016.5 | |
| 20260904125040 | 76 | 0.0 | 0.0 | 0.02 | 0.12 | 0.12 | 97 | 1016.4 | |
| 20260904124028 | 76 | 0.0 | 0.0 | 0.05 | 0.12 | 0.12 | 97 | 1016.2 | |
| 20260904123036 | 75 | 0.0 | 0.0 | 0.12 | 0.12 | 0.12 | 96 | 1016.4 | |
| 20260904122026 | 75 | 45 | 0.0 | 2.0 | 0.12 | 0.12 | 0.12 | 95 | 1016.4 |
| 20260904121034 | 75 | 0.0 | 0.0 | 0.11 | 0.11 | 0.11 | 94 | 1016.2 | |
| 20260904120023 | 76 | 223 | 1.0 | 4.0 | 0.10 | 0.10 | 0.10 | 93 | 1016.4 |
| 20260904115031 | 77 | 0.0 | 0.0 | 0.10 | 0.10 | 0.10 | 92 | 1016.3 | |
| 20260904114101 | 77 | 232 | 2.0 | 4.0 | 0.07 | 0.07 | 0.07 | 91 | 1016.2 |
| 20260904113028 | 79 | 147 | 3.0 | 5.0 | 0.00 | 0.00 | 0.00 | 86 | 1016.3 |
| 20260904112036 | 81 | 270 | 1.0 | 7.0 | 0.00 | 0.00 | 0.00 | 88 | 1015.7 |
| 20260904111045 | 82 | 351 | 2.0 | 5.0 | 0.00 | 0.00 | 0.00 | 88 | 1015.8 |
| 20260904110034 | 82 | 195 | 2.0 | 4.0 | 0.00 | 0.00 | 0.00 | 88 | 1015.5 |
| 20260904105044 | 81 | 207 | 2.0 | 4.0 | 0.00 | 0.00 | 0.00 | 92 | 1015.5 |
| 20260904104032 | 81 | 305 | 1.0 | 4.0 | 0.00 | 0.00 | 0.00 | 92 | 1015.3 |
| 20260904103021 | 81 | 0.0 | 0.0 | 0.00 | 0.00 | 0.00 | 92 | 1015.0 | |
| 20260904102029 | 81 | 0.0 | 0.0 | 0.00 | 0.00 | 0.00 | 92 | 1015.0 | |
| 20260904101037 | 81 | 0.0 | 0.0 | 0.00 | 0.00 | 0.00 | 92 | 1014.9 | |
| 20260904100027 | 81 | 0.0 | 0.0 | 0.00 | 0.00 | 0.00 | 92 | 1014.9 | |
| 20260904095037 | 81 | 0.0 | 0.0 | 0.00 | 0.00 | 0.00 | 92 | 1014.8 | |
| 20260904094024 | 81 | 0.0 | 0.0 | 0.00 | 0.00 | 0.00 | 92 | 1014.6 | |
| 20260904093032 | 81 | 0.0 | 0.0 | 0.00 | 0.00 | 0.00 | 91 | 1014.6 | |
| 20260904092021 | 81 | 0.0 | 0.0 | 0.00 | 0.00 | 0.00 | 91 | 1014.7 | |
| 20260904091029 | 81 | 0.0 | 0.0 | 0.00 | 0.00 | 0.00 | 91 | 1014.8 | |
| 20260904090019 | 81 | 0.0 | 0.0 | 0.00 | 0.00 | 0.00 | 91 | 1014.8 | |
| 20260904085027 | 81 | 0.0 | 0.0 | 0.00 | 0.00 | 0.00 | 92 | 1014.9 | |
| 20260904084035 | 81 | 0.0 | 0.0 | 0.00 | 0.00 | 0.00 | 92 | 1015.0 | |
| 20260904083044 | 81 | 0.0 | 0.0 | 0.00 | 0.00 | 0.00 | 92 | 1015.0 | |
| 20260904082052 | 81 | 0.0 | 0.0 | 0.00 | 0.00 | 0.00 | 92 | 1015.0 | |
| 20260904081043 | 80 | 0.0 | 0.0 | 0.00 | 0.00 | 0.00 | 92 | 1015.1 | |
| 20260904080030 | 80 | 0.0 | 0.0 | 0.00 | 0.00 | 0.00 | 92 | 1015.1 | |
| 20260904075019 | 80 | 0.0 | 0.0 | 0.00 | 0.00 | 0.00 | 92 | 1015.1 | |
| 20260904074028 | 80 | 0.0 | 0.0 | 0.00 | 0.00 | 0.00 | 92 | 1015.0 | |
| 20260904073035 | 80 | 0.0 | 0.0 | 0.00 | 0.00 | 0.00 | 92 | 1015.0 | |
| 20260904072045 | 80 | 0.0 | 0.0 | 0.00 | 0.00 | 0.00 | 92 | 1015.1 | |
| 20260904071033 | 81 | 0.0 | 0.0 | 0.00 | 0.00 | 0.00 | 91 | 1015.0 | |
| 20260904070557 | 81 | 0.0 | 0.0 | 0.00 | 0.00 | 0.00 | 91 | 1015.1 | |
| 20260904065526 | 81 | 0.0 | 0.0 | 0.00 | 0.00 | 0.00 | 91 | 1015.2 | |
| 20260904064534 | 81 | 0.0 | 0.0 | 0.00 | 0.00 | 0.00 | 90 | 1015.3 | |
| 20260904063524 | 81 | 0.0 | 0.0 | 0.00 | 0.00 | 0.00 | 90 | 1015.3 | |
| 20260904062532 | 81 | 0.0 | 0.0 | 0.00 | 0.00 | 0.00 | 90 | 1015.2 | |
| 20260904061542 | 81 | 0.0 | 0.0 | 0.00 | 0.00 | 0.00 | 90 | 1015.3 | |
| 20260904060529 | 81 | 0.0 | 0.0 | 0.00 | 0.00 | 0.00 | 90 | 1015.3 | |
| 20260904055519 | 81 | 0.0 | 0.0 | 0.00 | 0.00 | 0.00 | 90 | 1015.2 | |
| 20260904054527 | 81 | 0.0 | 0.0 | 0.00 | 0.00 | 0.00 | 90 | 1015.3 | |
| 20260904053535 | 81 | 0.0 | 0.0 | 0.00 | 0.00 | 0.00 | 90 | 1015.3 | |
| 20260904052524 | 81 | 0.0 | 0.0 | 0.00 | 0.00 | 0.00 | 88 | 1015.1 | |
| 20260904051533 | 81 | 0.0 | 0.0 | 0.00 | 0.00 | 0.00 | 88 | 1014.9 | |
| 20260904050542 | 81 | 0.0 | 0.0 | 0.00 | 0.00 | 0.00 | 88 | 1014.9 | |
| 20260904045530 | 82 | 0.0 | 0.0 | 0.00 | 0.00 | 0.00 | 88 | 1014.8 | |
| 20260904044520 | 82 | 0.0 | 0.0 | 0.00 | 0.00 | 0.00 | 87 | 1014.8 | |
| 20260904043528 | 82 | 0.0 | 0.0 | 0.00 | 0.00 | 0.00 | 87 | 1014.7 | |
| 20260904042535 | 82 | 0.0 | 0.0 | 0.00 | 0.00 | 0.00 | 86 | 1014.7 | |
| 20260904041525 | 82 | 0.0 | 0.0 | 0.00 | 0.00 | 0.00 | 86 | 1014.8 | |
| 20260904040553 | 83 | 0.0 | 0.0 | 0.00 | 0.00 | 0.00 | 85 | 1014.8 | |
| 20260904035545 | 83 | 0.0 | 0.0 | 0.00 | 0.00 | 0.00 | 84 | 1014.8 | |
| 20260904034611 | 83 | 0.0 | 0.0 | 0.00 | 0.00 | 0.00 | 84 | 1015.1 | |
| 20260904033541 | 84 | 113 | 0.0 | 1.0 | 0.00 | 0.00 | 0.00 | 83 | 1015.1 |
| 20260904032528 | 84 | 127 | 1.0 | 3.0 | 0.00 | 0.00 | 0.00 | 82 | 1015.2 |
| 20260904031537 | 84 | 0.0 | 0.0 | 0.00 | 0.00 | 0.00 | 82 | 1015.2 | |
| 20260904030526 | 84 | 135 | 1.0 | 3.0 | 0.00 | 0.00 | 0.00 | 82 | 1015.4 |
| 20260904025533 | 84 | 135 | 1.0 | 2.0 | 0.00 | 0.00 | 0.00 | 81 | 1015.5 |
| 20260904024543 | 84 | 135 | 0.0 | 2.0 | 0.00 | 0.00 | 0.00 | 81 | 1015.5 |
| 20260904023531 | 85 | 124 | 2.0 | 3.0 | 0.00 | 0.00 | 0.00 | 80 | 1015.5 |
| 20260904022541 | 85 | 141 | 1.0 | 3.0 | 0.00 | 0.00 | 0.00 | 79 | 1015.5 |
| 20260904021529 | 85 | 148 | 1.0 | 4.0 | 0.00 | 0.00 | 0.00 | 79 | 1015.5 |
| 20260904020538 | 85 | 161 | 1.0 | 3.0 | 0.00 | 0.00 | 0.00 | 78 | 1015.4 |
| 20260904015526 | 85 | 138 | 2.0 | 4.0 | 0.00 | 0.00 | 0.00 | 78 | 1015.3 |
| 20260904014534 | 85 | 136 | 1.0 | 4.0 | 0.00 | 0.00 | 0.00 | 78 | 1015.3 |
| 20260904013523 | 85 | 135 | 0.0 | 2.0 | 0.00 | 0.00 | 0.00 | 78 | 1015.2 |
| 20260904012532 | 85 | 0.0 | 0.0 | 0.00 | 0.00 | 0.00 | 78 | 1015.2 | |
| 20260904011521 | 86 | 135 | 0.0 | 2.0 | 0.00 | 0.00 | 0.00 | 77 | 1015.0 |
| 20260904010551 | 86 | 122 | 1.0 | 2.0 | 0.00 | 0.00 | 0.00 | 76 | 1015.1 |
| 20260904005536 | 86 | 151 | 0.0 | 2.0 | 0.00 | 0.00 | 0.00 | 74 | 1015.2 |
| 20260904004526 | 87 | 142 | 1.0 | 3.0 | 0.00 | 0.00 | 0.00 | 73 | 1015.3 |
| 20260904003535 | 87 | 118 | 1.0 | 3.0 | 0.00 | 0.00 | 0.00 | 73 | 1015.3 |
| 20260904002523 | 87 | 119 | 2.0 | 3.0 | 0.00 | 0.00 | 0.00 | 73 | 1015.1 |
| 20260904001532 | 88 | 160 | 1.0 | 4.0 | 0.00 | 0.00 | 0.00 | 72 | 1015.2 |
| 20260904000521 | 88 | 144 | 2.0 | 5.0 | 0.00 | 0.00 | 0.00 | 71 | 1015.2 |
| 20260903235529 | 89 | 119 | 1.0 | 3.0 | 0.00 | 0.00 | 0.00 | 70 | 1015.2 |
| 20260903234537 | 90 | 142 | 2.0 | 3.0 | 0.00 | 0.00 | 0.00 | 68 | 1015.0 |
| 20260903233527 | 90 | 123 | 1.0 | 4.0 | 0.00 | 0.00 | 0.00 | 70 | 1015.0 |
| 20260903232535 | 91 | 149 | 2.0 | 4.0 | 0.00 | 0.00 | 0.00 | 68 | 1014.9 |
| 20260903231524 | 91 | 164 | 3.0 | 5.0 | 0.00 | 0.00 | 0.00 | 66 | 1014.7 |
| 20260903230552 | 92 | 144 | 2.0 | 4.0 | 0.00 | 0.00 | 0.00 | 65 | 1014.6 |
| 20260903225521 | 91 | 148 | 4.0 | 5.0 | 0.00 | 0.00 | 0.00 | 65 | 1014.5 |
| 20260903224529 | 91 | 139 | 2.0 | 5.0 | 0.00 | 0.00 | 0.00 | 65 | 1014.5 |
| 20260903223537 | 92 | 141 | 4.0 | 6.0 | 0.00 | 0.00 | 0.00 | 64 | 1014.5 |
| 20260903222547 | 93 | 156 | 4.0 | 5.0 | 0.00 | 0.00 | 0.00 | 62 | 1014.5 |
| 20260903221535 | 93 | 164 | 4.0 | 6.0 | 0.00 | 0.00 | 0.00 | 62 | 1014.6 |
| 20260903220524 | 93 | 143 | 2.0 | 5.0 | 0.00 | 0.00 | 0.00 | 62 | 1014.7 |
| 20260903215552 | 93 | 129 | 3.0 | 4.0 | 0.00 | 0.00 | 0.00 | 62 | 1014.8 |
| 20260903214541 | 92 | 140 | 1.0 | 5.0 | 0.00 | 0.00 | 0.00 | 62 | 1014.8 |
| 20260903213529 | 92 | 101 | 3.0 | 6.0 | 0.00 | 0.00 | 0.00 | 64 | 1014.9 |
| 20260903212540 | 92 | 156 | 4.0 | 6.0 | 0.00 | 0.00 | 0.00 | 65 | 1015.0 |
| 20260903211527 | 91 | 162 | 5.0 | 6.0 | 0.00 | 0.00 | 0.00 | 67 | 1014.9 |
| 20260903210555 | 91 | 147 | 3.0 | 7.0 | 0.00 | 0.00 | 0.00 | 69 | 1015.0 |
| 20260903205544 | 93 | 154 | 3.0 | 5.0 | 0.00 | 0.00 | 0.00 | 66 | 1015.1 |